QZS-1 (QZSS/PRN 183)

Last updated on Jan. 23, 2021, 7:32 a.m. UTC

1 37158U 10045A   21022.65389591 -.00000159  00000-0  00000-0 0  9993
2 37158  41.8276 140.5079 0758869 270.5716  86.4269  1.00260503 37979
UTC
Height (km)
Latitude
Longitude
Inclination
Orbital Period
UTC large
Height (km)
Speed (km/s)
/
Latitude / Longitude
Inclination (degrees)
Orbital Period (minutes)
Azimuth
Elevation
Range (km)
Doppler Factor
iOS Compass Heading
iOS Angle

Next 30 passes for location: Hong Kong

Rise time Rise Azimuth (degrees) Set time Set Azimuth (degrees) Duration Max altitude (degrees)

No matching passes for this satellites